Tracking 29088 objects as of 14-Jul-2024
HD Live streaming from Space Station
objects crossing your sky now

COSMOS 1275 DEB

Track COSMOS 1275 DEB now!
10-day predictions


NORAD ID: 12781
Int'l Code: 1981-053DX
Perigee: 910.8 km
Apogee: 1,012.7 km
Inclination: 83.2 °
Period: 104.2 minutes
Semi major axis: 7332 km
RCS: 0.0804 m2 (small)
Launch date: June 4, 1981
Source: Commonwealth of Independent States (former USSR) (CIS)
Launch site: PLESETSK MISSILE AND SPACE COMPLEX (PKMTR)

Note: This is SATELLITE DEBRIS
Your satellite tracking list
Your tracking list is empty




NASA's NSSDC Master Catalog

Two Line Element Set (TLE):
1 12781U 81053DX  24195.97101222  .00002662  00000-0  23951-2 0  9999
2 12781  83.1698  93.2233 0069487 217.3315 155.5790 13.82618538151648
Source of the keplerian elements: AFSPC